Jai Tuiloma

Recruteur - Canterbury United
15 Oct 2028
Dimanche
Processus

Personnalité

Adaptabilité (16) Ambition (17) Controverse (14) Loyauté (7) Pression (1) Professionnalisme (6) Sportivité (10) Tempérament (5)

Profil

Style d'entraînement Démocratique
Diplôme Continental A
Détermination 2
Gestion des joueurs 2
Motivation 6
Discipline 3
Satisfaction professionnelle
100%
Fatigue
0%
Rôle Recruteur
Salaire 32.7K p/s
Contrat 14.03.2029

Performance

Comportement Bon
Efficacité de l'entraînement
25%
Développement des joueurs
20%
Prévention des blessures
5%
Mise en place tactique
35%

Événements récents

A participé à une réunion de recrutement maintenant
A participé à une réunion de recrutement 7j
A participé à une réunion de recrutement 7j
A recommandé une cible de transfert 7j
A participé à une réunion de recrutement 14j
A participé à une réunion de recrutement 14j
A recommandé une cible de transfert 14j
A recommandé une cible de transfert 21j

Suivi en cours

143
Joueur Club Statut Capacité Confiance Observé Dernière observation Dernier vote
Cameron Singh WaiBOP United Actif 66 / 89 51% 1 31.07.2028 -
Dane Barbarouses Southern United Actif 62 / 75 51% 1 17.07.2028 Observer
Enzo González Defensores Actif 104 / 114 40% 3 01.06.2028 -
Callum De Vries WaiBOP United Actif 70 / 69 51% 1 01.06.2028 -
Juan Peinipil Madryn Actif 90 / 112 40% 1 01.06.2028 -
Maximiliano Luayza Koot Tristán Suárez Actif 96 / 121 40% 1 29.05.2028 -
Tomás O'Connor Gimnasia y Esgrima Actif 143 / 130 40% 1 24.05.2028 -
Juan Sebastián Herrera Deportivo La Guaira Actif 103 / 116 40% 4 22.05.2028 -
Patricio Moyano Defensores Actif 112 / 113 40% 1 22.05.2028 -
Lautaro Disanto Defensores Unidos Actif 116 / 116 40% 1 20.05.2028 -
Nicolás Retamar Ferro Carril Oeste Actif 130 / 122 40% 1 20.05.2028 -
Lawrence Wong Newcastle Jets Actif 112 / 112 40% 1 17.05.2028 -
Baltasar Rodríguez Estudiantes Actif 134 / 127 40% 3 16.05.2028 -
Tobías Leiva Estudiantes Actif 101 / 125 40% 2 16.05.2028 -
Santiago Longo Belgrano Actif 140 / 135 40% 1 15.05.2028 -
Amlani Tatu Western Sydney Wanderers Actif 94 / 122 40% 3 14.05.2028 -
Will Freney Perth Glory Actif 96 / 105 40% 3 11.05.2028 -
Matías Noble Almirante Brown Actif 118 / 106 40% 1 11.05.2028 -
Yeferson Rodallega Envigado Actif 127 / 120 40% 2 08.05.2028 -
Miguel Ceccotti Güemes Actif 105 / 113 40% 2 08.05.2028 -
Iñaki Larthirigoyen San Telmo Actif 106 / 116 40% 1 07.05.2028 -
Esteban Obregón Montevideo City Torque Actif 131 / 114 40% 1 04.05.2028 -
Brian Farioli Estudiantes Actif 100 / 113 40% 1 03.05.2028 -
Marcos Enrique Tristán Suárez Actif 95 / 102 40% 1 01.05.2028 -
Agustín Ojeda Chaco For Ever Actif 117 / 104 40% 1 29.04.2028 -
Austin Ayoubi Central Coast Mariners Actif 99 / 112 40% 3 28.04.2028 -
Ulises Sánchez Gimnasia y Esgrima Actif 111 / 118 40% 2 27.04.2028 -
Maximiliano Meléndez Chacarita Juniors Actif 125 / 120 40% 1 27.04.2028 -
Newton Adebayo Team Wellington Actif 114 / 98 40% 3 26.04.2028 -
Pedro Sanz Central Norte Actif 116 / 113 40% 2 24.04.2028 -
Facundo Lencioni Gimnasia y Esgrima Actif 106 / 121 40% 1 23.04.2028 -
Enzo Trinidad Colegiales Actif 102 / 116 40% 1 23.04.2028 -
Matías Viguet Maipú Actif 117 / 116 40% 1 22.04.2028 -
Fabian Talladira Adelaide United Actif 77 / 94 40% 2 21.04.2028 -
Franco Díaz Temperley Actif 129 / 130 40% 2 20.04.2028 -
Nathan Amanatidis Wellington Phoenix Actif 104 / 96 40% 1 20.04.2028 -
Enzo Hoyos Ferro Carril Oeste Actif 131 / 110 40% 2 19.04.2028 -
Tiago Banega Gimnasia y Tiro Actif 106 / 122 40% 1 18.04.2028 -
Nicolás Barros Schelotto Gimnasia La Plata Actif 126 / 117 40% 1 18.04.2028 -
Gianluca Pugliese Güemes Actif 95 / 103 40% 3 15.04.2028 -
Tadiwanashe Kuzamba Macarthur FC Actif 87 / 100 40% 1 15.04.2028 -
Brian Guerra Chaco For Ever Actif 126 / 103 40% 1 13.04.2028 -
Delfor Minervino Estudiantes Actif 102 / 108 40% 1 12.04.2028 -
Fin Conchie Wellington Phoenix Actif 107 / 109 40% 1 11.04.2028 -
Nicolas Sport Recife Actif 112 / 120 40% 1 02.04.2028 -
Leandro Allende Colón Actif 102 / 121 40% 1 29.03.2028 -
Juan Velázquez Belgrano Actif 132 / 117 40% 1 24.03.2028 -
Chris Stamatelopoulos WaiBOP United Actif 110 / 103 40% 1 23.03.2028 -
Johan Campaña Patriotas Actif 112 / 103 40% 1 22.03.2028 -
Arian Pardo Adelaide United Actif 89 / 95 40% 1 19.03.2028 -
Sabo Gambo Team Wellington Actif 121 / 113 40% 1 11.03.2028 -
Joey Garuccio Melbourne Victory Actif 89 / 99 40% 1 10.03.2028 -
Bruno Leyes Godoy Cruz Actif 130 / 118 40% 1 09.03.2028 -
Christian Oliva Santos Actif 106 / 129 40% 1 06.03.2028 -
Prince Ukachukwu Irtysh Actif 87 / 102 40% 4 03.03.2028 -
David Yoo Auckland City Actif 97 / 109 40% 1 03.03.2028 -
Jesse Akila Taraz Actif 97 / 110 40% 5 01.03.2028 -
Doniyor Abdumannopov Andijon Actif 103 / 115 40% 1 01.03.2028 -
Javohir Sidiqov Kokand 1912 Actif 102 / 107 40% 1 28.02.2028 -
Behruz Soatov Rewa Actif 71 / 68 40% 1 26.02.2028 -
Oleksiy Shchebetun Qizilqum Actif 88 / 87 40% 1 24.02.2028 -
Ratinho Neftchi Actif 96 / 101 40% 2 23.02.2028 -
Javohir Ro'ziyev Bukhara Actif 76 / 102 40% 1 23.02.2028 -
Humoyunmirzo Iminov Andijon Actif 96 / 111 40% 1 22.02.2028 -
Callan Elliot Auckland FC Actif 104 / 109 40% 1 21.02.2028 -
Appolinaire Bougma Auckland City Actif 86 / 109 40% 1 20.02.2028 -
Shahzod Rahmatullayev Qizilqum Actif 106 / 110 40% 1 19.02.2028 -
Islombek Baratov Mashal Actif 102 / 96 40% 1 18.02.2028 -
Umar Adhamzoda Navbahor Actif 92 / 108 40% 2 17.02.2028 -
Doniyor Narzullayev Shortan Actif 73 / 90 40% 1 17.02.2028 -
Kayne Razmovski Rewa Actif 73 / 69 40% 1 16.02.2028 -
Temur Mamasiddiqov Bukhara Actif 83 / 101 40% 1 14.02.2028 -
Fabby Clark Metallurg Actif 92 / 86 40% 1 13.02.2028 -
Joel Anasmo Auckland City Actif 109 / 108 40% 1 13.02.2028 -
Aleksandar Boljević Sogdiana Actif 135 / 110 40% 1 08.02.2028 -
Ricardo Williams Irtysh Actif 88 / 97 40% 1 07.02.2028 -
Joe Payne Southern United Actif 99 / 99 66% 2 / 2m 26.01.2028 Approuver
Deklan Wood Southern United Actif 80 / 85 30% 1 / 1m 26.01.2028 -
Santiago Rodríguez Gimnasia y Esgrima Actif 110 / 117 40% 1 10.01.2028 -
Dylan Cabral Arsenal Actif 98 / 100 40% 1 10.01.2028 -
Francis Cacace Waitakere United Actif 71 / 65 51% 1 01.01.2028 -
Facundo Krüger Temperley Actif 129 / 125 40% 3 31.12.2027 -
Santiago Sala Güemes Actif 108 / 121 40% 2 31.12.2027 -
Sávio PSM Actif 92 / 98 40% 1 29.12.2027 -
Lucas Pedraza Defensores Unidos Actif 94 / 96 40% 2 28.12.2027 -
Octavio Bianchi Gimnasia y Esgrima Actif 98 / 101 40% 1 28.12.2027 -
Augusto Berrondo Tristán Suárez Actif 115 / 107 40% 1 27.12.2027 -
Ljupce Doriev Sogdiana Actif 103 / 111 40% 2 26.12.2027 -
Camilo Machado Madryn Actif 126 / 105 40% 3 26.12.2027 -
Agustín Lavezzi Quilmes Actif 99 / 114 40% 2 24.12.2027 -
Carlos Ramírez Zulia Actif 94 / 91 40% 1 24.12.2027 -
Lorenzo Barrera Agropecuario Argentino Actif 83 / 96 40% 1 23.12.2027 -
Milan Ristovski Bhayangkara Presisi Actif 108 / 110 40% 1 23.12.2027 -
Juan David Rueda Alianza Petrolera Actif 119 / 100 40% 1 22.12.2027 -
Lucas Cano All Boys Actif 98 / 107 40% 2 20.12.2027 -
Kianz Froese Semen Padang Actif 119 / 99 40% 3 17.12.2027 -
Lautaro Gordillo Colegiales Actif 131 / 110 40% 3 17.12.2027 -
Sergio Castel Persik Actif 122 / 118 40% 3 16.12.2027 -
Danilo Santacruz Madura United Actif 95 / 107 40% 1 15.12.2027 -
Abu Kamara Persis Actif 81 / 106 40% 2 14.12.2027 -
Luca Franco Arsenal Actif 125 / 116 40% 3 10.12.2027 -
Sergio González Racing Négociation 108 / 114 40% 1 10.12.2027 -
Riquelme Madura United Actif 88 / 95 40% 1 09.12.2027 -
Tobías Cervera Gimnasia y Esgrima Actif 102 / 125 40% 1 08.12.2027 -
Dejan Tumbas Persis Actif 108 / 92 40% 2 07.12.2027 -
Jort van der Sande Bali United Actif 90 / 113 40% 3 05.12.2027 -
Júnior Brandão Madura United Actif 88 / 102 40% 1 05.12.2027 -
Favio Cabral Mitre Actif 112 / 126 40% 1 03.12.2027 -
Lisandro Cabrera Maipú Actif 99 / 120 40% 2 02.12.2027 -
Sebastián Cocimano Nueva Chicago Actif 118 / 102 40% 1 29.11.2027 -
Germán Cervera Alvarado Actif 117 / 101 40% 1 21.11.2027 -
José Barreto Quilmes Actif 130 / 115 40% 1 15.11.2027 -
Franco Ayunta Temperley Actif 102 / 116 40% 1 13.11.2027 -
Alexis Gómez Persijap Actif 111 / 109 40% 1 12.11.2027 -
Juan Rodríguez Cerro Largo Actif 105 / 108 40% 1 09.11.2027 -
Sheriddin Boboev PSM Actif 115 / 105 40% 1 09.11.2027 -
Renzo Reynaga Patronato Actif 94 / 101 40% 2 08.11.2027 -
Agustín Gallo Tristán Suárez Actif 125 / 118 40% 1 07.11.2027 -
Nermin Haljeta PSIM Actif 100 / 109 40% 2 06.11.2027 -
Santiago Guzmán Wanderers Actif 103 / 104 40% 3 05.11.2027 -
Matías Samaniego Talleres Actif 92 / 98 40% 3 04.11.2027 -
Suleiman Abdullahi Atyrau Actif 88 / 95 40% 1 02.11.2027 -
Nicolás Heiz Maipú Actif 96 / 103 40% 1 04.10.2027 -
Rafael Andrade Rewa Actif 78 / 73 40% 3 26.09.2027 -
Kazaki Nakagawa Semen Padang Actif 89 / 81 40% 1 26.09.2027 -
Andrés Dieppa Bogota Actif 105 / 101 40% 1 24.09.2027 -
Setareki Hughes Rewa Actif 59 / 68 40% 1 23.09.2027 -
Asadbek Jo'raboyev Bukhara Actif 82 / 89 40% 1 22.09.2027 -
Imeda Ashortia Andijon Actif 108 / 105 40% 1 21.09.2027 -
Moussa Sidibé Bhayangkara Presisi Actif 94 / 96 40% 1 18.09.2027 -
Omar Bautista Gerez Central Córdoba SdE Actif 106 / 96 40% 1 17.09.2027 -
Luka Čumić PSM Actif 102 / 108 40% 1 17.09.2027 -
Anton Fase PSIM Actif 96 / 102 40% 2 15.09.2027 -
Owen Falconis Cerrito Actif 82 / 102 40% 1 12.09.2027 -
Valdeci Arema Actif 104 / 107 40% 1 10.09.2027 -
Sairusi Nalaubu Lautoka Actif 94 / 84 40% 1 08.09.2027 -
Muhammed Kabiru Ordabasy Actif 98 / 88 40% 1 20.07.2027 -
Diego Campos Bali United Actif 92 / 111 40% 1 15.06.2027 -
Timur Masharipov Obod Actif 79 / 99 40% 1 15.06.2027 -
Deklan Lockyer WaiBOP United Actif 48 / 70 48% 1 01.01.2027 -
Thiago Perugini San Lorenzo Actif 115 / 101 40% 1 31.12.2026 -
Noah Wood WaiBOP United Actif 58 / 64 40% 1 31.12.2026 -
Jake Waine Actif 62 / 63 48% 1 10.08.2026 -